Flag for Canada Weather past 2 weeks in Hay River, Northwest Territories, Canada

Now
57 °F

Passing clouds.


Feels Like: 55 °F
Forecast: 52 / 68 °F
Wind: 9 mph from Southeast

Location: Hay River

Current Time: Sep 22, 2014 at 2:46:06 AM

Latest Report: Sep 22, 2014 at 2:00 AM


Visibility: 15 mi

Pressure: 29.58 "Hg

Humidity: 72%

Dew point: 48 °F

Location of Hay RiverLocation

Historic Weather in Hay River — Graph

°F

Hay River temperature yesterday

Maximum temperature yesterday: 66 °F (at 1:00 PM)
Minimum temperature yesterday: 48 °F (at 3:00 AM)
Average temperature yesterday: 56 °F

Past Weeks' High & Low Weather Summary

 TemperatureHumidityPressure
High66 °F (Sep 17, 4:00 PM)100% (Sep 18, 3:00 AM)30.57 "Hg (Sep 18, 3:00 AM)
Low28 °F (Sep 10, 1:00 AM)28% (Sep 10, 5:00 PM)29.39 "Hg (Sep 19, 12:00 PM)
Average46 °F69%29.98 "Hg
* Reported Sep 7 2:00 AM — Sep 22 2:00 AM, Hay River, Weather by CustomWeather, © 2014

Note: Actual official high and low records may vary slightly from our data, if they occured in-between our weather recording intervals... More about our weather records

Advertising

Hay River weather history for previous 24 hours

 ConditionsComfort  
Time TempWeatherWind HumidityBarometerVisibility
2:00 AM
Sep 22
57 °FPassing clouds.9 mph72%29.58 "Hg15 mi
1:00 AM57 °FPassing clouds.13 mph67%29.60 "Hg15 mi
12:00 AM55 °FPassing clouds.10 mph72%29.63 "Hg15 mi
11:00 PM
Sep 21
55 °FPassing clouds.9 mph72%29.67 "Hg15 mi
10:00 PM57 °FPassing clouds.12 mph63%29.69 "Hg15 mi
9:00 PM55 °FPassing clouds.10 mph72%29.70 "Hg15 mi
8:00 PM55 °FScattered clouds.9 mph67%29.70 "Hg15 mi
7:00 PM57 °FScattered clouds.9 mph63%29.71 "Hg15 mi
6:00 PM59 °FBroken clouds.9 mph63%29.71 "Hg15 mi
5:00 PM63 °FPartly sunny.8 mph56%29.72 "Hg15 mi
4:00 PM66 °FBroken clouds.5 mph49%29.73 "Hg15 mi
3:00 PM64 °FPartly sunny.6 mph52%29.72 "Hg15 mi
2:00 PM66 °FBroken clouds.7 mph49%29.72 "Hg15 mi
1:00 PM66 °FPartly sunny.3 mph49%29.70 "Hg15 mi
12:00 PM64 °FBroken clouds.8 mph52%29.71 "Hg15 mi
11:00 AM63 °FBroken clouds.6 mph56%29.71 "Hg15 mi
10:00 AM55 °FBroken clouds.5 mph67%29.70 "Hg15 mi
9:00 AM52 °FBroken clouds.8 mph72%29.70 "Hg15 mi
8:00 AM48 °FPartly cloudy.6 mph76%29.70 "Hg15 mi
7:00 AM48 °FPassing clouds.6 mph76%29.69 "Hg15 mi
6:00 AM50 °FPassing clouds.8 mph71%29.68 "Hg15 mi
5:00 AM50 °FPassing clouds.7 mph71%29.68 "Hg15 mi
4:00 AM50 °FPassing clouds.5 mph71%29.68 "Hg15 mi
3:00 AM48 °FPassing clouds.7 mph71%29.68 "Hg15 mi
2:00 AM52 °FPassing clouds.7 mph62%29.69 "Hg15 mi
Weather by CustomWeather, © 2014

See weather overviewHow to use our weather pages